Погода в Чекшине

Россия / Вологодская область     59°39′24″N   40°33′19″E
темп.,
°C
ветер,
м/с
пор.,
м/с
влажн.,
%
обл.,
%
осадки,
мм/ч
давл.,
гПа
погр.,
м
13 апреля, вт
вт1300:00+7ююв41593100 0.0 1031592
03:00+6ююв41295100 0.1 1030506
06:00+6ююв41098100 0.1 1028481
09:00+7ююв41096100 0.1 1027455
12:00+12ю51077100 0.0 1025633
15:00+15ю41072100 0.0 1023991
18:00+13ю3978100 0.0 1022289
21:00+10ю31286100 0.0 1023269
14 апреля, ср
ср1400:00+8ю2992100 0.0 1022159
03:00+7ююв3119190 0.0 1022201
06:00+7ю311875 0.0 1021221
09:00+12ю411688 0.0 1020396
12:00+16ююз510545 0.0 1019832
15:00+18ю5105255 0.0 10181263
18:00+15ю41158100 0.0 1017528
21:00+10ю31276100 0.0 1018313
15 апреля, чт
чт1500:00+8ссз3695100 0.0 1018183
03:00+7с379294 0.0 1020333
06:00+6ссв3792100 1.1 1021416
09:00+5ссв3884100 1.5 1022505
12:00+6св3879100 0.0 1023576
15:00+7св3671100 0.0 1024866
18:00+8св3669100 0.0 1024450
21:00+5св4971100 0.0 1025507
16 апреля, пт
пт1600:00+2св3107676 0.0 1026324
03:000ссв39825 0.0 1027220
06:000ссв39790 0.0 1028267
09:00+5св47535 0.0 1028842
12:00+8ссв454245 0.0 10291362
15:00+9ссв453866 0.0 10291560
18:00+8ссв47484 0.0 1029809
21:00+3с25725 0.0 103176
17 апреля, сб
сб1700:00+2ссв310763 0.0 1033463
03:000ссв411805 0.0 1035475
06:00−1ссв411785 0.0 1036599
09:00+3св47510 0.0 1037875
12:00+6св45355 0.0 10371442
15:00+8ссв343218 0.0 10371552
18:00+7с254320 0.0 1037430
21:00+2с226267 0.0 103815